Location: Miami, Florida
(25.6830°N, 80.1700°W)
Time: 04:39:40
(UTC-04:00)

Tiangong 2 - Pass Details

Date: 29 April 2019
Orbit: 379 x 387 km, 42.8° (Epoch: 23 May)

Event Time Altitude Azimuth Distance (km) Brightness Sun altitude
Exits shadow 05:00:54 14° 132° (SE) 1,179 3.7 -22.6°
Drops below altitude 10° 05:02:30 10° 101° (ESE) 1,396 4.5 -22.3°
Sets 05:05:16 0° 75° (ENE) 2,254 6.3 -21.7°
